Location: American Medical Response
(33.3472°N, 96.5511°W)
Time: 12:47:07
(UTC+00:00)

SL-4 R/B - Pass Details

Date: 08 December 2021
Orbit: 427 x 660 km, 51.6° (Epoch: 22 January)

Event Time Altitude Azimuth Distance (km) Brightness Sun altitude
Exits shadow 12:27:56 14° 271° (W) 1,333 3.4 -10.4°
Maximum altitude 12:30:17 27° 325° (NW) 902 2.7 -9.9°
Drops below altitude 10° 12:33:25 10° 25° (NNE) 1,621 4.5 -9.3°
Sets 12:35:52 0° 37° (NE) 2,542 5.6 -8.8°
